IRIDIUM 94 [P] (27374 NORAD) Tracking and Keplerian Element Data

This shows tracking and keplerian element data for the satellite.

Feedback or suggestion? Click here.




ElementValue
Catalog27374
NameIRIDIUM 94 [P]
Epoch Orbit86016
Epoch Day108.2447594
Epoch Year2018
RAAN124.3001
Inclination86.2998
Eccentricity0.0093641
Argument of Perigee344.5221
Mean Anonmoly17.2855
Mean Motion16.61324468
Decay Rate0.58469441
L11 27374U 02005C 18108.24475940 .58469441 -85873-7 19282-4 0 9999
L22 27374 86.2998 124.3001 0093641 344.5221 17.2855 16.61324468860162

Live tracking and technical data element details for IRIDIUM 94 [P] (NORAD 27374). IRIDIUM 94 [P] can be tracked NOW for your location showing map with azimuth and elevation plus other details from your city location.

Track the satellite on the map from your city or location and see movement details for azimuth, elevation, latitude, longitude, range, height, and movement on the map or in text.







IsCatalogInMostPopularTable: catalog: 27374, numindb: 67
Update: records affected: 1



GetName: 27374 IRIDIUM 94 [P]

Hit Count: updated at: Sat, 15 Dec 2018 18:44:36 GMT